Check out our new BloomSky Weather System.

Active alerts


No alerts


Thunder radar  blitzortung!


Rain radar more information rain snow radar


Visit our other weather sites:

Template documentation
and downloads

And another site



Weather Underground History page Text

Daily Summary for April 29, 2017 Units:  Metric    English   Both
« Previous Day
Next Day »
Daily Weekly Monthly Yearly Custom
  High: Low: Average:
Temperature: 29.4 °C 19.8 °C 27.3 °C
Dew Point: 25.6 °C 16.8 °C 24.6 °C
Humidity: 91 % 77 % 85 %
Wind Speed: 35.4 km/h 3.2 km/h 14.6 km/h
Wind Gust: 49.9 km/h - -
Wind:- - SSE
Pressure: 1008.4 hPa 1000.6 hPa -
Precipitation: 0 mm    
Historical Graphs
 
 
Tabular Data for April 29, 2017
Time Temperature Dew Point Pressure Wind Wind Speed Wind Gust Humidity Rainfall Rate (Hourly)
00:03 26.9 °C 24.4 °C 1005 hPa SSE 16.1 km/h 25.7 km/h 86 % 0 mm
00:08 26.8 °C 24.3 °C 1005 hPa SE 14.5 km/h 25.7 km/h 86 % 0 mm
00:13 26.8 °C 24.3 °C 1005 hPa SE 9.7 km/h 24.1 km/h 86 % 0 mm
00:18 26.8 °C 24.3 °C 1005 hPa SSE 8 km/h 24.1 km/h 86 % 0 mm
00:23 26.7 °C 24.2 °C 1005 hPa ESE 22.5 km/h 22.5 km/h 86 % 0 mm
00:28 26.7 °C 24.2 °C 1005 hPa SE 12.9 km/h 22.5 km/h 86 % 0 mm
00:33 26.7 °C 24.2 °C 1005 hPa SSE 11.3 km/h 22.5 km/h 86 % 0 mm
00:38 26.7 °C 24.2 °C 1004.6 hPa ESE 14.5 km/h 24.1 km/h 86 % 0 mm
00:43 26.8 °C 24.3 °C 1004.6 hPa SE 11.3 km/h 27.4 km/h 86 % 0 mm
00:48 26.8 °C 24.3 °C 1004.6 hPa SE 20.9 km/h 27.4 km/h 86 % 0 mm
00:53 26.8 °C 24.5 °C 1004.6 hPa SSE 12.9 km/h 27.4 km/h 87 % 0 mm
00:58 26.8 °C 24.3 °C 1004.6 hPa SE 20.9 km/h 25.7 km/h 86 % 0 mm
01:03 26.8 °C 24.5 °C 1004.6 hPa East 11.3 km/h 22.5 km/h 87 % 0 mm
01:08 26.8 °C 24.3 °C 1004.6 hPa SE 11.3 km/h 22.5 km/h 86 % 0 mm
01:13 26.8 °C 24.3 °C 1004.3 hPa SSE 6.4 km/h 30.6 km/h 86 % 0 mm
01:18 26.8 °C 24.3 °C 1004.3 hPa SSE 17.7 km/h 30.6 km/h 86 % 0 mm
01:23 26.8 °C 24.3 °C 1004.3 hPa East 11.3 km/h 30.6 km/h 86 % 0 mm
01:28 26.8 °C 24.5 °C 1004.3 hPa SE 8 km/h 30.6 km/h 87 % 0 mm
01:33 26.8 °C 24.5 °C 1004.3 hPa South 6.4 km/h 30.6 km/h 87 % 0 mm
01:38 26.8 °C 24.3 °C 1004.3 hPa East 16.1 km/h 30.6 km/h 86 % 0 mm
01:43 26.8 °C 24.3 °C 1004.3 hPa SE 19.3 km/h 27.4 km/h 86 % 0 mm
01:48 26.8 °C 24.5 °C 1004.3 hPa South 16.1 km/h 32.2 km/h 87 % 0 mm
01:53 26.8 °C 24.5 °C 1004.3 hPa ESE 14.5 km/h 32.2 km/h 87 % 0 mm
01:58 26.8 °C 24.5 °C 1003.9 hPa ESE 25.7 km/h 32.2 km/h 87 % 0 mm
02:03 26.8 °C 24.5 °C 1003.9 hPa SSE 8 km/h 35.4 km/h 87 % 0 mm
02:04 26.8 °C 24.5 °C 1003.9 hPa SSE 9.7 km/h 35.4 km/h 87 % 0 mm
02:09 26.8 °C 24.5 °C 1003.9 hPa ESE 24.1 km/h 35.4 km/h 87 % 0 mm
02:14 26.8 °C 24.5 °C 1003.9 hPa SSE 14.5 km/h 35.4 km/h 87 % 0 mm
02:19 26.8 °C 24.5 °C 1003.9 hPa SE 16.1 km/h 25.7 km/h 87 % 0 mm
02:24 26.8 °C 24.5 °C 1003.9 hPa SE 11.3 km/h 32.2 km/h 87 % 0 mm
02:29 26.8 °C 24.5 °C 1003.9 hPa SE 9.7 km/h 32.2 km/h 87 % 0 mm
02:34 26.8 °C 24.5 °C 1003.9 hPa ESE 8 km/h 32.2 km/h 87 % 0 mm
02:40 26.8 °C 24.5 °C 1003.9 hPa SSE 14.5 km/h 30.6 km/h 87 % 0 mm
02:45 26.8 °C 24.5 °C 1003.9 hPa SSE 6.4 km/h 29 km/h 87 % 0 mm
02:50 26.8 °C 24.5 °C 1003.9 hPa SE 12.9 km/h 29 km/h 87 % 0 mm
02:55 26.8 °C 24.5 °C 1003.6 hPa SE 9.7 km/h 29 km/h 87 % 0 mm
03:00 26.8 °C 24.5 °C 1003.6 hPa SE 11.3 km/h 32.2 km/h 87 % 0 mm
03:05 26.7 °C 24.4 °C 1003.6 hPa South 19.3 km/h 32.2 km/h 87 % 0 mm
03:10 26.8 °C 24.5 °C 1003.6 hPa SE 8 km/h 32.2 km/h 87 % 0 mm
03:15 26.8 °C 24.5 °C 1003.6 hPa SSE 16.1 km/h 27.4 km/h 87 % 0 mm
03:20 26.8 °C 24.5 °C 1003.3 hPa SSE 22.5 km/h 27.4 km/h 87 % 0 mm
03:25 26.8 °C 24.5 °C 1003.6 hPa East 19.3 km/h 30.6 km/h 87 % 0 mm
03:30 26.8 °C 24.5 °C 1003.6 hPa SE 11.3 km/h 35.4 km/h 87 % 0 mm
03:35 26.7 °C 24.2 °C 1003.6 hPa SE 11.3 km/h 38.6 km/h 86 % 0 mm
03:40 26.7 °C 24.2 °C 1003.6 hPa SE 12.9 km/h 38.6 km/h 86 % 0 mm
03:45 26.8 °C 24.3 °C 1003.6 hPa SE 8 km/h 38.6 km/h 86 % 0 mm
03:50 26.8 °C 24.3 °C 1003.6 hPa SSE 4.8 km/h 33.8 km/h 86 % 0 mm
03:55 26.8 °C 24.3 °C 1003.6 hPa ESE 11.3 km/h 33.8 km/h 86 % 0 mm
04:00 26.7 °C 24.2 °C 1003.6 hPa SE 14.5 km/h 27.4 km/h 86 % 0 mm
04:05 26.8 °C 24.3 °C 1003.6 hPa SE 11.3 km/h 27.4 km/h 86 % 0 mm
04:10 26.8 °C 24.3 °C 1003.6 hPa ESE 12.9 km/h 27.4 km/h 86 % 0 mm
04:15 26.8 °C 24.3 °C 1003.6 hPa ESE 12.9 km/h 29 km/h 86 % 0 mm
04:20 26.8 °C 24.5 °C 1003.6 hPa SE 11.3 km/h 29 km/h 87 % 0 mm
04:25 26.8 °C 24.5 °C 1003.6 hPa SE 14.5 km/h 29 km/h 87 % 0 mm
04:30 26.8 °C 24.5 °C 1003.6 hPa SSE 11.3 km/h 29 km/h 87 % 0 mm
04:35 26.7 °C 24.4 °C 1003.6 hPa ENE 11.3 km/h 29 km/h 87 % 0 mm
04:40 26.7 °C 24.4 °C 1003.6 hPa South 11.3 km/h 29 km/h 87 % 0 mm
04:45 26.7 °C 24.4 °C 1003.6 hPa East 9.7 km/h 29 km/h 87 % 0 mm
04:50 26.7 °C 24.4 °C 1003.6 hPa SE 11.3 km/h 29 km/h 87 % 0 mm
04:55 26.7 °C 24.4 °C 1003.6 hPa South 9.7 km/h 29 km/h 87 % 0 mm
04:56 26.7 °C 24.4 °C 1003.6 hPa SE 11.3 km/h 29 km/h 87 % 0 mm
05:01 26.7 °C 24.4 °C 1003.6 hPa ESE 24.1 km/h 24.1 km/h 87 % 0 mm
05:06 26.7 °C 24.4 °C 1003.6 hPa ESE 22.5 km/h 32.2 km/h 87 % 0 mm
05:11 26.7 °C 24.4 °C 1003.6 hPa SSE 20.9 km/h 32.2 km/h 87 % 0 mm
05:16 26.6 °C 24.3 °C 1003.6 hPa SSE 19.3 km/h 32.2 km/h 87 % 0 mm
05:21 26.6 °C 24.3 °C 1003.6 hPa South 6.4 km/h 25.7 km/h 87 % 0 mm
05:26 26.6 °C 24.3 °C 1003.9 hPa East 12.9 km/h 24.1 km/h 87 % 0 mm
05:31 26.6 °C 24.3 °C 1003.9 hPa East 16.1 km/h 24.1 km/h 87 % 0 mm
05:36 26.6 °C 24.3 °C 1003.9 hPa South 9.7 km/h 32.2 km/h 87 % 0 mm
05:41 26.5 °C 24.2 °C 1003.9 hPa SE 16.1 km/h 32.2 km/h 87 % 0 mm
05:46 26.6 °C 24.3 °C 1003.9 hPa SSE 8 km/h 32.2 km/h 87 % 0 mm
05:51 26.5 °C 24.2 °C 1003.9 hPa ESE 8 km/h 25.7 km/h 87 % 0 mm
05:56 26.5 °C 24.2 °C 1003.9 hPa ESE 4.8 km/h 25.7 km/h 87 % 0 mm
06:01 26.4 °C 24.2 °C 1003.9 hPa East 9.7 km/h 17.7 km/h 88 % 0 mm
06:06 26.4 °C 24.2 °C 1003.9 hPa SSE 12.9 km/h 17.7 km/h 88 % 0 mm
06:08 26.4 °C 24.2 °C 1003.9 hPa SE 6.4 km/h 17.7 km/h 88 % 0 mm
06:13 26.4 °C 24.2 °C 1003.9 hPa SSE 17.7 km/h 25.7 km/h 88 % 0 mm
06:18 26.3 °C 24.2 °C 1003.9 hPa SSE 8 km/h 25.7 km/h 88 % 0 mm
06:23 26.3 °C 24.2 °C 1003.9 hPa SE 8 km/h 25.7 km/h 88 % 0 mm
06:28 26.3 °C 24.2 °C 1003.9 hPa ESE 12.9 km/h 24.1 km/h 88 % 0 mm
06:33 26.3 °C 24.2 °C 1004.3 hPa SSE 6.4 km/h 22.5 km/h 88 % 0 mm
06:38 26.3 °C 24.2 °C 1004.3 hPa SE 6.4 km/h 20.9 km/h 88 % 0 mm
06:43 26.3 °C 24.2 °C 1004.3 hPa ESE 9.7 km/h 20.9 km/h 88 % 0 mm
06:48 26.3 °C 24.2 °C 1004.3 hPa SSE 9.7 km/h 20.9 km/h 88 % 0 mm
06:53 26.3 °C 24.2 °C 1004.3 hPa SE 11.3 km/h 20.9 km/h 88 % 0 mm
06:58 26.4 °C 24.2 °C 1004.3 hPa South 12.9 km/h 25.7 km/h 88 % 0 mm
07:03 26.4 °C 24.2 °C 1004.3 hPa SE 16.1 km/h 25.7 km/h 88 % 0 mm
07:08 26.4 °C 24.2 °C 1004.3 hPa SSE 12.9 km/h 25.7 km/h 88 % 0 mm
07:13 26.4 °C 24.1 °C 1004.3 hPa ESE 8 km/h 24.1 km/h 87 % 0 mm
07:18 26.4 °C 24.1 °C 1004.3 hPa SE 14.5 km/h 24.1 km/h 87 % 0 mm
07:23 26.5 °C 24.2 °C 1004.3 hPa SSE 22.5 km/h 22.5 km/h 87 % 0 mm
07:28 26.5 °C 24.2 °C 1004.3 hPa South 19.3 km/h 29 km/h 87 % 0 mm
07:33 26.6 °C 24.3 °C 1004.3 hPa SE 14.5 km/h 29 km/h 87 % 0 mm
07:38 26.6 °C 24.3 °C 1004.3 hPa SSE 16.1 km/h 32.2 km/h 87 % 0 mm
07:43 26.6 °C 24.3 °C 1004.3 hPa ESE 9.7 km/h 32.2 km/h 87 % 0 mm
07:48 26.6 °C 24.3 °C 1004.3 hPa ESE 11.3 km/h 32.2 km/h 87 % 0 mm
07:53 26.6 °C 24.3 °C 1004.3 hPa South 11.3 km/h 27.4 km/h 87 % 0 mm
07:58 26.6 °C 24.3 °C 1004.3 hPa SE 12.9 km/h 27.4 km/h 87 % 0 mm
08:03 26.7 °C 24.4 °C 1004.3 hPa SE 9.7 km/h 27.4 km/h 87 % 0 mm
08:08 26.7 °C 24.4 °C 1004.3 hPa SSE 12.9 km/h 27.4 km/h 87 % 0 mm
08:13 26.7 °C 24.4 °C 1004.3 hPa South 8 km/h 22.5 km/h 87 % 0 mm
08:18 26.8 °C 24.5 °C 1004.3 hPa SSE 14.5 km/h 24.1 km/h 87 % 0 mm
08:23 26.8 °C 24.5 °C 1004.3 hPa ESE 9.7 km/h 24.1 km/h 87 % 0 mm
08:28 26.9 °C 24.4 °C 1004.3 hPa SE 8 km/h 24.1 km/h 86 % 0 mm
08:33 27 °C 24.5 °C 1004.3 hPa SSE 11.3 km/h 25.7 km/h 86 % 0 mm
08:38 27.1 °C 24.6 °C 1003.9 hPa ESE 17.7 km/h 29 km/h 86 % 0 mm
08:43 27.2 °C 24.7 °C 1003.9 hPa SE 16.1 km/h 29 km/h 86 % 0 mm
08:48 27.2 °C 24.5 °C 1003.9 hPa ESE 16.1 km/h 29 km/h 85 % 0 mm
08:53 27.3 °C 24.6 °C 1004.3 hPa SSE 12.9 km/h 37 km/h 85 % 0 mm
08:58 27.3 °C 24.6 °C 1003.9 hPa ESE 24.1 km/h 37 km/h 85 % 0 mm
09:03 27.3 °C 24.6 °C 1003.9 hPa SSE 14.5 km/h 37 km/h 85 % 0 mm
09:08 27.4 °C 24.7 °C 1003.9 hPa SSE 16.1 km/h 33.8 km/h 85 % 0 mm
09:13 27.4 °C 24.7 °C 1003.9 hPa SE 19.3 km/h 33.8 km/h 85 % 0 mm
09:18 27.4 °C 24.7 °C 1003.9 hPa SSE 11.3 km/h 33.8 km/h 85 % 0 mm
09:23 27.5 °C 24.7 °C 1003.9 hPa SSE 16.1 km/h 33.8 km/h 85 % 0 mm
09:28 27.6 °C 24.6 °C 1003.9 hPa SW 25.7 km/h 33.8 km/h 84 % 0 mm
09:30 27.6 °C 24.6 °C 1003.9 hPa ESE 9.7 km/h 35.4 km/h 84 % 0 mm
09:35 27.6 °C 24.6 °C 1003.9 hPa SSE 19.3 km/h 35.4 km/h 84 % 0 mm
09:40 27.7 °C 24.7 °C 1003.9 hPa ESE 14.5 km/h 35.4 km/h 84 % 0 mm
09:45 27.7 °C 24.7 °C 1003.6 hPa SSW 29 km/h 33.8 km/h 84 % 0 mm
09:50 27.8 °C 24.8 °C 1003.9 hPa South 11.3 km/h 35.4 km/h 84 % 0 mm
09:55 27.8 °C 24.8 °C 1003.9 hPa SSE 17.7 km/h 35.4 km/h 84 % 0 mm
10:00 27.9 °C 24.7 °C 1003.9 hPa SSE 14.5 km/h 35.4 km/h 83 % 0 mm
10:05 27.9 °C 24.7 °C 1003.6 hPa East 12.9 km/h 37 km/h 83 % 0 mm
10:10 27.9 °C 24.7 °C 1003.6 hPa SE 22.5 km/h 37 km/h 83 % 0 mm
10:15 27.9 °C 24.7 °C 1003.6 hPa SSE 32.2 km/h 37 km/h 83 % 0 mm
10:20 27.9 °C 24.9 °C 1003.6 hPa SE 32.2 km/h 33.8 km/h 84 % 0 mm
10:25 28.1 °C 25.1 °C 1003.6 hPa SE 16.1 km/h 33.8 km/h 84 % 0 mm
10:30 28.1 °C 24.9 °C 1003.6 hPa East 19.3 km/h 37 km/h 83 % 0 mm
10:35 28.1 °C 24.9 °C 1003.6 hPa SSE 11.3 km/h 37 km/h 83 % 0 mm
10:40 28.1 °C 24.9 °C 1003.9 hPa SE 14.5 km/h 37 km/h 83 % 0 mm
10:45 28.2 °C 25 °C 1003.6 hPa South 20.9 km/h 32.2 km/h 83 % 0 mm
10:50 28.3 °C 25.1 °C 1003.9 hPa SW 17.7 km/h 32.2 km/h 83 % 0 mm
10:55 28.4 °C 25.2 °C 1003.9 hPa SSW 17.7 km/h 49.9 km/h 83 % 0 mm
11:00 28.5 °C 25.1 °C 1003.6 hPa ESE 25.7 km/h 49.9 km/h 82 % 0 mm
11:05 28.6 °C 25.2 °C 1003.9 hPa SSW 8 km/h 49.9 km/h 82 % 0 mm
11:10 28.8 °C 25.2 °C 1003.9 hPa SSW 19.3 km/h 37 km/h 81 % 0 mm
11:15 28.8 °C 25.2 °C 1003.9 hPa SE 16.1 km/h 40.2 km/h 81 % 0 mm
11:20 28.8 °C 25.2 °C 1003.9 hPa SE 25.7 km/h 40.2 km/h 81 % 0 mm
11:25 28.9 °C 25.3 °C 1003.9 hPa South 25.7 km/h 40.2 km/h 81 % 0 mm
11:30 28.9 °C 25.3 °C 1003.9 hPa SE 22.5 km/h 37 km/h 81 % 0 mm
11:35 29 °C 25.4 °C 1003.9 hPa South 19.3 km/h 37 km/h 81 % 0 mm
11:40 29 °C 25.4 °C 1003.9 hPa SSE 19.3 km/h 37 km/h 81 % 0 mm
11:45 29.1 °C 25.5 °C 1003.6 hPa SE 24.1 km/h 33.8 km/h 81 % 0 mm
11:50 29.1 °C 25.5 °C 1003.6 hPa ESE 9.7 km/h 37 km/h 81 % 0 mm
11:55 29.1 °C 25.5 °C 1003.3 hPa ESE 16.1 km/h 43.5 km/h 81 % 0 mm
12:00 29.3 °C 25.5 °C 1002.9 hPa East 33.8 km/h 43.5 km/h 80 % 0 mm
12:05 29.3 °C 25.5 °C 1003.3 hPa ESE 20.9 km/h 43.5 km/h 80 % 0 mm
12:10 29.4 °C 25.6 °C 1002.9 hPa ESE 17.7 km/h 35.4 km/h 80 % 0 mm
12:15 29.4 °C 25.6 °C 1003.3 hPa SSW 11.3 km/h 35.4 km/h 80 % 0 mm
12:20 29.3 °C 25.3 °C 1002.9 hPa SE 25.7 km/h 38.6 km/h 79 % 0 mm
12:25 29.2 °C 25.4 °C 1003.3 hPa SE 22.5 km/h 38.6 km/h 80 % 0 mm
12:30 28.9 °C 25.3 °C 1002.9 hPa SSW 16.1 km/h 38.6 km/h 81 % 0 mm
12:35 28.8 °C 25.2 °C 1002.9 hPa SE 11.3 km/h 38.6 km/h 81 % 0 mm
12:40 28.7 °C 25.3 °C 1002.9 hPa SSE 14.5 km/h 38.6 km/h 82 % 0 mm
12:45 28.6 °C 25.2 °C 1002.9 hPa ESE 27.4 km/h 32.2 km/h 82 % 0 mm
12:50 28.6 °C 25.2 °C 1002.9 hPa SE 12.9 km/h 32.2 km/h 82 % 0 mm
12:55 28.6 °C 25.2 °C 1002.9 hPa SSE 11.3 km/h 32.2 km/h 82 % 0 mm
13:00 28.6 °C 25.2 °C 1002.9 hPa SE 12.9 km/h 27.4 km/h 82 % 0 mm
13:05 28.6 °C 25.2 °C 1002.9 hPa ESE 25.7 km/h 25.7 km/h 82 % 0 mm
13:10 28.6 °C 25.2 °C 1002.6 hPa SE 12.9 km/h 27.4 km/h 82 % 0 mm
13:15 28.5 °C 25.3 °C 1002.6 hPa SE 17.7 km/h 27.4 km/h 83 % 0 mm
13:20 28.5 °C 25.1 °C 1002.6 hPa SSE 20.9 km/h 27.4 km/h 82 % 0 mm
13:25 28.4 °C 25 °C 1002.6 hPa SSW 17.7 km/h 33.8 km/h 82 % 0 mm
13:30 28.4 °C 25.2 °C 1002.6 hPa SSW 17.7 km/h 33.8 km/h 83 % 0 mm
13:35 28.3 °C 25.1 °C 1002.3 hPa SSE 25.7 km/h 37 km/h 83 % 0 mm
13:39 28.3 °C 25.1 °C 1002.3 hPa SSE 9.7 km/h 37 km/h 83 % 0 mm
13:44 28.3 °C 25.1 °C 1002.3 hPa ESE 19.3 km/h 37 km/h 83 % 0 mm
13:49 28.3 °C 25.1 °C 1002.3 hPa South 9.7 km/h 37 km/h 83 % 0 mm
13:54 28.3 °C 25.1 °C 1002.3 hPa SSE 22.5 km/h 37 km/h 83 % 0 mm
13:59 28.3 °C 25.1 °C 1001.9 hPa SSE 11.3 km/h 33.8 km/h 83 % 0 mm
14:04 28.3 °C 25.3 °C 1001.9 hPa SSE 25.7 km/h 29 km/h 84 % 0 mm
14:09 28.3 °C 25.3 °C 1002.3 hPa SSE 22.5 km/h 29 km/h 84 % 0 mm
14:14 28.3 °C 25.3 °C 1002.3 hPa SE 14.5 km/h 29 km/h 84 % 0 mm
14:19 28.3 °C 25.3 °C 1002.3 hPa ESE 17.7 km/h 25.7 km/h 84 % 0 mm
14:24 28.2 °C 25.2 °C 1002.3 hPa South 9.7 km/h 25.7 km/h 84 % 0 mm
14:29 28.2 °C 25.2 °C 1002.3 hPa SW 11.3 km/h 32.2 km/h 84 % 0 mm
14:34 28.1 °C 25.1 °C 1002.3 hPa SSE 11.3 km/h 32.2 km/h 84 % 0 mm
14:39 28 °C 25.2 °C 1002.3 hPa SSE 17.7 km/h 32.2 km/h 85 % 0 mm
14:44 27.9 °C 25.1 °C 1002.3 hPa South 12.9 km/h 29 km/h 85 % 0 mm
14:49 27.9 °C 25.1 °C 1002.3 hPa SSE 12.9 km/h 27.4 km/h 85 % 0 mm
14:54 27.9 °C 25.1 °C 1002.3 hPa ESE 9.7 km/h 27.4 km/h 85 % 0 mm
14:55 27.9 °C 25.1 °C 1002.3 hPa SSE 25.7 km/h 33.8 km/h 85 % 0 mm
15:00 27.8 °C 25 °C 1002.3 hPa SW 19.3 km/h 33.8 km/h 85 % 0 mm
15:05 27.8 °C 25.2 °C 1002.3 hPa SSE 17.7 km/h 33.8 km/h 86 % 0 mm
15:10 27.7 °C 25.1 °C 1002.3 hPa South 19.3 km/h 27.4 km/h 86 % 0 mm
15:15 27.7 °C 25.1 °C 1002.3 hPa SW 17.7 km/h 27.4 km/h 86 % 0 mm
15:20 27.6 °C 25 °C 1002.3 hPa SSE 16.1 km/h 27.4 km/h 86 % 0 mm
15:25 27.6 °C 25 °C 1002.3 hPa SE 24.1 km/h 27.4 km/h 86 % 0 mm
15:30 27.6 °C 25.2 °C 1002.3 hPa SE 14.5 km/h 29 km/h 87 % 0 mm
15:35 27.6 °C 25 °C 1002.3 hPa SSE 17.7 km/h 29 km/h 86 % 0 mm
15:40 27.7 °C 25.1 °C 1002.3 hPa ESE 11.3 km/h 29 km/h 86 % 0 mm
15:45 27.7 °C 25.1 °C 1002.3 hPa SSE 16.1 km/h 24.1 km/h 86 % 0 mm
15:50 27.7 °C 25.1 °C 1001.9 hPa SSE 17.7 km/h 29 km/h 86 % 0 mm
15:55 27.8 °C 25.2 °C 1001.9 hPa SE 25.7 km/h 33.8 km/h 86 % 0 mm
16:00 27.8 °C 25.2 °C 1001.9 hPa SE 14.5 km/h 33.8 km/h 86 % 0 mm
16:05 27.8 °C 25.2 °C 1001.9 hPa SSE 14.5 km/h 33.8 km/h 86 % 0 mm
16:10 27.8 °C 25.2 °C 1001.9 hPa ESE 19.3 km/h 29 km/h 86 % 0 mm
16:15 27.7 °C 25.1 °C 1002.3 hPa SE 11.3 km/h 32.2 km/h 86 % 0 mm
16:20 27.6 °C 25.2 °C 1002.3 hPa SE 14.5 km/h 32.2 km/h 87 % 0 mm
16:25 27.6 °C 25.4 °C 1002.3 hPa SE 6.4 km/h 32.2 km/h 88 % 0 mm
16:30 27.7 °C 25.3 °C 1001.9 hPa SE 12.9 km/h 24.1 km/h 87 % 0 mm
16:35 27.7 °C 25.3 °C 1001.9 hPa SSE 22.5 km/h 25.7 km/h 87 % 0 mm
16:40 27.7 °C 25.3 °C 1001.9 hPa South 8 km/h 25.7 km/h 87 % 0 mm
16:45 27.8 °C 25.4 °C 1001.6 hPa SSE 20.9 km/h 30.6 km/h 87 % 0 mm
16:50 28 °C 25.6 °C 1001.6 hPa SE 14.5 km/h 30.6 km/h 87 % 0 mm
16:55 28.1 °C 25.5 °C 1001.6 hPa ESE 11.3 km/h 30.6 km/h 86 % 0 mm
17:00 28.1 °C 25.3 °C 1001.6 hPa SSE 17.7 km/h 27.4 km/h 85 % 0 mm
17:05 28.1 °C 25.3 °C 1001.6 hPa SSW 12.9 km/h 27.4 km/h 85 % 0 mm
17:10 28.2 °C 25.4 °C 1001.6 hPa East 24.1 km/h 25.7 km/h 85 % 0 mm
17:15 28.2 °C 25.2 °C 1001.6 hPa South 19.3 km/h 27.4 km/h 84 % 0 mm
17:20 28.3 °C 25.3 °C 1001.6 hPa SE 22.5 km/h 27.4 km/h 84 % 0 mm
17:25 28.4 °C 25.2 °C 1001.2 hPa South 16.1 km/h 29 km/h 83 % 0 mm
17:30 28.4 °C 25 °C 1001.2 hPa SE 16.1 km/h 32.2 km/h 82 % 0 mm
17:35 28.4 °C 25 °C 1001.2 hPa SSE 14.5 km/h 32.2 km/h 82 % 0 mm
17:40 28.4 °C 25 °C 1001.2 hPa South 14.5 km/h 32.2 km/h 82 % 0 mm
17:45 28.4 °C 25 °C 1001.2 hPa SSW 20.9 km/h 32.2 km/h 82 % 0 mm
17:50 28.3 °C 24.9 °C 1001.2 hPa SE 24.1 km/h 32.2 km/h 82 % 0 mm
17:55 28.4 °C 25 °C 1001.2 hPa SE 17.7 km/h 27.4 km/h 82 % 0 mm
18:00 28.4 °C 25 °C 1001.2 hPa SE 20.9 km/h 27.4 km/h 82 % 0 mm
18:05 28.3 °C 24.7 °C 1001.2 hPa SSE 19.3 km/h 27.4 km/h 81 % 0 mm
18:10 28.3 °C 24.7 °C 1001.2 hPa SE 12.9 km/h 29 km/h 81 % 0 mm
18:13 28.2 °C 24.8 °C 1000.9 hPa SE 16.1 km/h 29 km/h 82 % 0 mm
18:18 28.2 °C 24.8 °C 1000.9 hPa SSE 11.3 km/h 29 km/h 82 % 0 mm
18:23 28.2 °C 24.6 °C 1000.9 hPa SSE 9.7 km/h 29 km/h 81 % 0 mm
18:28 28.2 °C 24.8 °C 1000.9 hPa SE 17.7 km/h 32.2 km/h 82 % 0 mm
18:33 28.1 °C 24.7 °C 1000.9 hPa SE 12.9 km/h 32.2 km/h 82 % 0 mm
18:38 28.1 °C 24.7 °C 1000.9 hPa SSE 24.1 km/h 33.8 km/h 82 % 0 mm
18:43 28.1 °C 24.7 °C 1001.2 hPa SE 9.7 km/h 35.4 km/h 82 % 0 mm
18:48 28 °C 24.6 °C 1000.9 hPa SE 30.6 km/h 35.4 km/h 82 % 0 mm
18:53 27.9 °C 24.5 °C 1000.9 hPa SE 8 km/h 35.4 km/h 82 % 0 mm
18:58 27.8 °C 24.4 °C 1000.9 hPa SSE 35.4 km/h 35.4 km/h 82 % 0 mm
19:03 27.8 °C 24.6 °C 1000.6 hPa SE 22.5 km/h 37 km/h 83 % 0 mm
19:08 27.8 °C 24.6 °C 1000.9 hPa SE 17.7 km/h 37 km/h 83 % 0 mm
19:09 27.7 °C 24.5 °C 1000.9 hPa SE 14.5 km/h 37 km/h 83 % 0 mm
19:14 27.7 °C 24.5 °C 1000.9 hPa South 11.3 km/h 37 km/h 83 % 0 mm
19:19 27.7 °C 24.5 °C 1000.9 hPa SE 11.3 km/h 32.2 km/h 83 % 0 mm
19:24 27.6 °C 24.4 °C 1000.9 hPa ESE 19.3 km/h 33.8 km/h 83 % 0 mm
19:29 27.6 °C 24.4 °C 1000.9 hPa SSW 29 km/h 33.8 km/h 83 % 0 mm
19:34 27.6 °C 24.4 °C 1000.9 hPa South 9.7 km/h 33.8 km/h 83 % 0 mm
19:39 27.5 °C 24.4 °C 1000.9 hPa South 11.3 km/h 30.6 km/h 83 % 0 mm
19:44 27.5 °C 24.4 °C 1000.6 hPa SSW 14.5 km/h 30.6 km/h 83 % 0 mm
19:49 27.4 °C 24.3 °C 1000.9 hPa SSW 9.7 km/h 30.6 km/h 83 % 0 mm
19:54 27.4 °C 24.3 °C 1000.9 hPa SSE 20.9 km/h 30.6 km/h 83 % 0 mm
19:59 27.4 °C 24.3 °C 1000.9 hPa SE 14.5 km/h 32.2 km/h 83 % 0 mm
20:04 27.3 °C 24.2 °C 1001.2 hPa SSE 11.3 km/h 32.2 km/h 83 % 0 mm
20:05 27.3 °C 24.2 °C 1001.2 hPa ESE 14.5 km/h 32.2 km/h 83 % 0 mm
20:10 27.3 °C 24.2 °C 1001.2 hPa South 20.9 km/h 38.6 km/h 83 % 0 mm
20:15 27.3 °C 24.2 °C 1001.2 hPa SSE 17.7 km/h 38.6 km/h 83 % 0 mm
20:20 27.3 °C 24.2 °C 1001.2 hPa South 9.7 km/h 38.6 km/h 83 % 0 mm
20:25 27.3 °C 24.2 °C 1001.6 hPa ESE 25.7 km/h 37 km/h 83 % 0 mm
20:30 27.2 °C 24.1 °C 1001.6 hPa South 19.3 km/h 37 km/h 83 % 0 mm
20:35 27.2 °C 24.1 °C 1001.9 hPa SSE 4.8 km/h 27.4 km/h 83 % 0 mm
20:40 27.2 °C 24.1 °C 1002.3 hPa South 11.3 km/h 27.4 km/h 83 % 0 mm
20:45 27.2 °C 24.1 °C 1002.3 hPa SE 6.4 km/h 22.5 km/h 83 % 0 mm
20:50 27.2 °C 24.3 °C 1002.3 hPa SE 6.4 km/h 20.9 km/h 84 % 0 mm
20:55 27.2 °C 24.3 °C 1002.6 hPa South 16.1 km/h 20.9 km/h 84 % 0 mm
21:00 27.2 °C 24.3 °C 1002.9 hPa SE 12.9 km/h 20.9 km/h 84 % 0 mm
21:05 27.2 °C 24.3 °C 1002.9 hPa SSW 12.9 km/h 20.9 km/h 84 % 0 mm
21:10 27.2 °C 24.3 °C 1003.3 hPa SSE 9.7 km/h 20.9 km/h 84 % 0 mm
21:15 27.2 °C 24.3 °C 1003.6 hPa South 6.4 km/h 20.9 km/h 84 % 0 mm
21:20 27.1 °C 24.2 °C 1003.6 hPa SSE 16.1 km/h 22.5 km/h 84 % 0 mm
21:25 27.2 °C 24.3 °C 1003.9 hPa SSE 3.2 km/h 22.5 km/h 84 % 0 mm
21:30 27.1 °C 24.4 °C 1003.9 hPa SSW 8 km/h 22.5 km/h 85 % 0 mm
21:35 26.9 °C 24.2 °C 1004.3 hPa South 8 km/h 22.5 km/h 85 % 0 mm
21:40 26.9 °C 24.2 °C 1004.3 hPa SSE 8 km/h 17.7 km/h 85 % 0 mm
21:45 26.9 °C 24.4 °C 1004.3 hPa SE 4.8 km/h 17.7 km/h 86 % 0 mm
21:46 26.9 °C 24.4 °C 1004.3 hPa ESE 3.2 km/h 17.7 km/h 86 % 0 mm
21:51 26.8 °C 24.3 °C 1004.3 hPa SSE 6.4 km/h 17.7 km/h 86 % 0 mm
21:56 26.7 °C 24.4 °C 1004.3 hPa SW 12.9 km/h 17.7 km/h 87 % 0 mm
22:01 26.6 °C 24.3 °C 1004.3 hPa SSE 6.4 km/h 17.7 km/h 87 % 0 mm
22:06 26.5 °C 24.3 °C 1004.3 hPa SSW 12.9 km/h 14.5 km/h 88 % 0 mm
22:11 26.4 °C 24.2 °C 1004.6 hPa SSW 6.4 km/h 14.5 km/h 88 % 0 mm
22:16 26.3 °C 24.3 °C 1004.6 hPa South 4.8 km/h 14.5 km/h 89 % 0 mm
22:21 26.3 °C 24.3 °C 1004.6 hPa SSW 4.8 km/h 14.5 km/h 89 % 0 mm
22:26 26.2 °C 24.4 °C 1004.6 hPa South 6.4 km/h 11.3 km/h 90 % 0 mm
22:31 26.2 °C 24.4 °C 1005 hPa South 8 km/h 12.9 km/h 90 % 0 mm
22:36 26.2 °C 24.4 °C 1005 hPa SSE 3.2 km/h 12.9 km/h 90 % 0 mm
22:41 26.3 °C 24.5 °C 1005 hPa ESE 8 km/h 12.9 km/h 90 % 0 mm
22:46 26.3 °C 24.5 °C 1005 hPa SE 11.3 km/h 16.1 km/h 90 % 0 mm
22:51 26.3 °C 24.5 °C 1004.6 hPa ESE 12.9 km/h 19.3 km/h 90 % 0 mm
22:56 26.2 °C 24.4 °C 1004.6 hPa SSE 9.7 km/h 22.5 km/h 90 % 0 mm
23:01 26.2 °C 24.4 °C 1005 hPa SE 11.3 km/h 22.5 km/h 90 % 0 mm
23:06 26.2 °C 24.4 °C 1005 hPa SE 16.1 km/h 22.5 km/h 90 % 0 mm
23:11 26.2 °C 24.4 °C 1005 hPa South 8 km/h 22.5 km/h 90 % 0 mm
23:16 26.2 °C 24.4 °C 1004.6 hPa South 17.7 km/h 22.5 km/h 90 % 0 mm
23:21 26.2 °C 24.4 °C 1005 hPa SE 9.7 km/h 22.5 km/h 90 % 0 mm
23:26 26.2 °C 24.4 °C 1005.3 hPa SSE 11.3 km/h 22.5 km/h 90 % 0 mm
23:31 26.2 °C 24.4 °C 1006 hPa SW 4.8 km/h 22.5 km/h 90 % 0 mm
23:36 26.2 °C 24.6 °C 1006.7 hPa North 8 km/h 17.7 km/h 91 % 0 mm
23:41 24.3 °C 20.6 °C 1007 hPa West 11.3 km/h 27.4 km/h 80 % 0 mm
23:46 22 °C 17.8 °C 1007.3 hPa NW 12.9 km/h 32.2 km/h 77 % 0 mm
23:51 20.7 °C 17.1 °C 1007.7 hPa North 14.5 km/h 32.2 km/h 80 % 0 mm
23:56 19.8 °C 16.8 °C 1008.4 hPa WNW 20.9 km/h 32.2 km/h 83 % 0 mm
Spring, Texas: Villages of Bridgestone
Compliments of Weather Underground - 3 mb

Script developed by  Jim McMurry - jmcmurry@mwt.net Adapted for the template by  Wim van der Kuil - Leuven-Template.eu

You find our weather info also at:

UK Metoffice

WeatherCloud

Weather Underground

Mid-South Weather Network

AWEKAS

Citizen Weather Observer Program (CWOP)

HAMweather, WeatherForYou, PWS Weather

Equipment we use:

Weather-station
Davis Vantage Vue

Weather-program
Meteohub

Weather-server
Debian 7.9 x86 (Guest)

Provider
DreamHost

Davis Vantage Vue

Meteohub

Debian 7.9 x86 (Guest)

DreamHost